Terminal Aerodrome Forecast
Issued by NWS

Home | Current Version | Previous Version | Text Only | Print | Product List | Glossary On
Versions: 1 2 3 4 5 6 7 8 9 10 11 12 13 14 15 16 17 18 19 20 21 22 23 24 25 26 27 28 29 30 31 32 33 34 35 36 37 38 39 40 41 42 43 44 45 46 47 48 49 50
000
FTUS41 KCTP 110608 AAA
TAFBFD
TAF AMD
KBFD 110608Z 1106/1206 28007KT 4SM -SN OVC025
      TEMPO 1106/1108 2SM -SN
     FM111100 29012G22KT 2SM -SN OVC025
     FM111800 29012G22KT 4SM -SN OVC025
     FM112300 29008KT P6SM BKN035
     FM120500 28005KT P6SM BKN025=

USA.gov is the U.S. government's official web portal to all federal, state and local government web resources and services.